Regional Weather Roundup
Issued by NWS Goodland, KS

Home | Current Version | Previous Version | Text Only | Print | Product List | Glossary Off
Versions: 1 2 3 4 5 6 7 8 9 10 11 12 13 14 15 16 17 18 19 20 21 22 23 24 25 26 27 28 29 30 31 32 33 34 35 36 37 38 39 40 41 42 43 44 45 46 47 48 49 50

000
ASUS43 KGLD 210608
RWRGLD

GOODLAND FORECAST AREA HOURLY WEATHER ROUNDUP
NATIONAL WEATHER SERVICE GOODLAND KS
1200 AM MDT SAT OCT 21 2017

...OFFICIAL OBSERVATIONS...

CITY           SKY/WX    TMP DP  RH WIND       PRES   REMARKS
GOODLAND KS    CLEAR     54  44  69 S13       29.50F
HILL CITY KS   CLEAR     70  59  68 S23G40    29.54S
IMPERIAL NEB   CLEAR     60  49  66 S14       29.44F
MCCOOK NEB     CLEAR     67  57  70 S20G37    29.46F
AKRON CO       CLOUDY    60  28  29 W16       29.50R
BURLINGTON CO  CLOUDY    58  35  42 S15       29.52F
LIMON CO       CLOUDY    59  25  27 SW9       29.57S
$$

...UNOFFICIAL OBSERVATIONS...

CITY           SKY/WX    TMP DP  RH WIND       PRES   REMARKS
COLBY KS       CLEAR     63  54  72 S13G22    29.52F
LENORA KS        N/A     62  32  32 SW8         N/A
NORTON KS      CLEAR     68  54  60 S23G33    29.51S
SHARON SPRINGS   N/A     60  47  61 S16G23      N/A
TRENTON NEB      N/A     62  32  32 SW8         N/A
YUMA CO        FAIR      54  23  30 SW10      29.45F
$$




USA.gov is the U.S. government's official web portal to all federal, state and local government web resources and services.